User: anonymous   Login
Location: Unspecified
(0.0000°N, 0.0000°E)
Time: 11:03:03
(UTC+00:00)
Language:

SSETI-EXPRESS - Orbit

View from above orbital plane
View from above orbital plane
View from above satellite
View from above satellite

Ground track
Ground track

The orbit data is extracted from the following two-line orbital elements,

1 28894U 05043E   17351.87609913  .00000062  00000-0  21590-4 0  9992
2 28894  97.9032 140.5335 0015908 301.8073  58.1579 14.61493199647165
Epoch (UTC): 17 December 2017 21:01:34
Eccentricity: 0.0015908
inclination: 97.9032°
perigee height: 677 km
apogee height: 699 km
right ascension of ascending node: 140.5335°
argument of perigee: 301.8073°
revolutions per day: 14.61493199
mean anomaly at epoch: 58.1579°
orbit number at epoch: 64716

The dashed part of the orbit path shows where the satellite is in the earth's shadow,  

DLR